| time (UTC) | temp F | wind direction | speed MPH | gust MPH | rain 1hr in | rain 24hr in | rain mn in | humidity % | barometer mb |
| 20260902193545 | 94 | 163 | 3.0 | 9.0 | 0.00 | 0.00 | 0.00 | 26 | 1019.0 |
| 20260902193045 | 93 | 85 | 2.0 | 13.0 | 0.00 | 0.00 | 0.00 | 27 | 1019.0 |
| 20260902192544 | 93 | 117 | 6.0 | 13.0 | 0.00 | 0.00 | 0.00 | 27 | 1019.1 |
| 20260902192049 | 93 | 173 | 5.0 | 11.0 | 0.00 | 0.00 | 0.00 | 27 | 1019.1 |
| 20260902191543 | 93 | 325 | 1.0 | 10.0 | 0.00 | 0.00 | 0.00 | 28 | 1019.2 |
| 20260902191042 | 93 | 153 | 5.0 | 10.0 | 0.00 | 0.00 | 0.00 | 28 | 1019.3 |
| 20260902190542 | 92 | 130 | 4.0 | 10.0 | 0.00 | 0.00 | 0.00 | 28 | 1019.3 |
| 20260902190043 | 93 | 167 | 5.0 | 9.0 | 0.00 | 0.00 | 0.00 | 27 | 1019.4 |
| 20260902185541 | 92 | 300 | 2.0 | 11.0 | 0.00 | 0.00 | 0.00 | 28 | 1019.4 |
| 20260902185043 | 91 | 217 | 4.0 | 11.0 | 0.00 | 0.00 | 0.00 | 29 | 1019.5 |
| 20260902184539 | 90 | 171 | 1.0 | 8.0 | 0.00 | 0.00 | 0.00 | 29 | 1019.6 |
| 20260902184038 | 91 | 173 | 3.0 | 10.0 | 0.00 | 0.00 | 0.00 | 29 | 1019.8 |
| 20260902183538 | 91 | 144 | 3.0 | 10.0 | 0.00 | 0.00 | 0.00 | 29 | 1019.8 |
| 20260902183037 | 91 | 195 | 2.0 | 10.0 | 0.00 | 0.00 | 0.00 | 29 | 1019.9 |
| 20260902182535 | 90 | 150 | 5.0 | 8.0 | 0.00 | 0.00 | 0.00 | 30 | 1019.9 |
| 20260902182037 | 90 | 269 | 3.0 | 9.0 | 0.00 | 0.00 | 0.00 | 30 | 1020.1 |
| 20260902181534 | 90 | 193 | 5.0 | 10.0 | 0.00 | 0.00 | 0.00 | 29 | 1020.1 |
| 20260902181034 | 90 | 260 | 1.0 | 10.0 | 0.00 | 0.00 | 0.00 | 31 | 1020.1 |
| 20260902180533 | 90 | 223 | 6.0 | 10.0 | 0.00 | 0.00 | 0.00 | 31 | 1020.3 |
| 20260902180031 | 89 | 269 | 3.0 | 9.0 | 0.00 | 0.00 | 0.00 | 30 | 1020.3 |
| 20260902175530 | 90 | 234 | 6.0 | 9.0 | 0.00 | 0.00 | 0.00 | 31 | 1020.3 |
| 20260902175028 | 89 | 171 | 4.0 | 9.0 | 0.00 | 0.00 | 0.00 | 32 | 1020.3 |
| 20260902174532 | 89 | 276 | 4.0 | 8.0 | 0.00 | 0.00 | 0.00 | 32 | 1020.3 |
| 20260902174025 | 89 | 244 | 4.0 | 8.0 | 0.00 | 0.00 | 0.00 | 32 | 1020.4 |
| 20260902173524 | 89 | 247 | 4.0 | 10.0 | 0.00 | 0.00 | 0.00 | 32 | 1020.4 |
| 20260902173032 | 88 | 238 | 6.0 | 10.0 | 0.00 | 0.00 | 0.00 | 33 | 1020.5 |
| 20260902172524 | 88 | 224 | 4.0 | 9.0 | 0.00 | 0.00 | 0.00 | 34 | 1020.5 |
| 20260902172020 | 87 | 143 | 2.0 | 10.0 | 0.00 | 0.00 | 0.00 | 35 | 1020.5 |
| 20260902171519 | 87 | 208 | 5.0 | 10.0 | 0.00 | 0.00 | 0.00 | 35 | 1020.6 |
| 20260902171018 | 86 | 172 | 3.0 | 8.0 | 0.00 | 0.00 | 0.00 | 36 | 1020.6 |
| 20260902170521 | 86 | 202 | 4.0 | 10.0 | 0.00 | 0.00 | 0.00 | 35 | 1020.7 |
| 20260902170018 | 87 | 207 | 6.0 | 10.0 | 0.00 | 0.00 | 0.00 | 35 | 1020.6 |
| 20260902165513 | 87 | 234 | 4.0 | 8.0 | 0.00 | 0.00 | 0.00 | 35 | 1020.6 |
| 20260902165014 | 86 | 217 | 5.0 | 9.0 | 0.00 | 0.00 | 0.00 | 36 | 1020.7 |
| 20260902164510 | 85 | 152 | 5.0 | 9.0 | 0.00 | 0.00 | 0.00 | 36 | 1020.6 |
| 20260902164009 | 85 | 207 | 4.0 | 9.0 | 0.00 | 0.00 | 0.00 | 35 | 1020.7 |
| 20260902163508 | 85 | 169 | 5.0 | 9.0 | 0.00 | 0.00 | 0.00 | 36 | 1020.6 |
| 20260902163006 | 84 | 263 | 6.0 | 9.0 | 0.00 | 0.00 | 0.00 | 36 | 1020.7 |
| 20260902162504 | 83 | 209 | 3.0 | 7.0 | 0.00 | 0.00 | 0.00 | 38 | 1020.6 |
| 20260902162005 | 83 | 166 | 3.0 | 7.0 | 0.00 | 0.00 | 0.00 | 38 | 1020.6 |
| 20260902161509 | 83 | 154 | 3.0 | 7.0 | 0.00 | 0.00 | 0.00 | 37 | 1020.6 |
| 20260902161004 | 82 | 215 | 4.0 | 7.0 | 0.00 | 0.00 | 0.00 | 39 | 1020.6 |
| 20260902160559 | 82 | 182 | 3.0 | 8.0 | 0.00 | 0.00 | 0.00 | 40 | 1020.6 |
| 20260902160058 | 82 | 276 | 3.0 | 8.0 | 0.00 | 0.00 | 0.00 | 40 | 1020.6 |
| 20260902155557 | 81 | 224 | 4.0 | 8.0 | 0.00 | 0.00 | 0.00 | 40 | 1020.6 |
| 20260902155056 | 81 | 160 | 4.0 | 8.0 | 0.00 | 0.00 | 0.00 | 40 | 1020.7 |
| 20260902154555 | 80 | 222 | 4.0 | 8.0 | 0.00 | 0.00 | 0.00 | 41 | 1020.7 |
| 20260902154052 | 80 | 219 | 4.0 | 8.0 | 0.00 | 0.00 | 0.00 | 41 | 1020.6 |
| 20260902153552 | 80 | 192 | 2.0 | 8.0 | 0.00 | 0.00 | 0.00 | 42 | 1020.6 |
| 20260902153049 | 80 | 170 | 5.0 | 8.0 | 0.00 | 0.00 | 0.00 | 42 | 1020.7 |
| 20260902152548 | 80 | 150 | 3.0 | 9.0 | 0.00 | 0.00 | 0.00 | 43 | 1020.6 |
| 20260902152046 | 79 | 182 | 3.0 | 9.0 | 0.00 | 0.00 | 0.00 | 43 | 1020.6 |
| 20260902151545 | 79 | 224 | 4.0 | 9.0 | 0.00 | 0.00 | 0.00 | 44 | 1020.6 |
| 20260902151044 | 78 | 171 | 5.0 | 10.0 | 0.00 | 0.00 | 0.00 | 44 | 1020.5 |
| 20260902150543 | 78 | 180 | 6.0 | 10.0 | 0.00 | 0.00 | 0.00 | 44 | 1020.5 |
| 20260902150042 | 78 | 144 | 3.0 | 8.0 | 0.00 | 0.00 | 0.00 | 45 | 1020.5 |
| 20260902145540 | 77 | 218 | 4.0 | 8.0 | 0.00 | 0.00 | 0.00 | 45 | 1020.5 |
| 20260902145038 | 77 | 159 | 4.0 | 9.0 | 0.00 | 0.00 | 0.00 | 45 | 1020.5 |
| 20260902144538 | 77 | 194 | 4.0 | 9.0 | 0.00 | 0.00 | 0.00 | 45 | 1020.4 |
| 20260902144035 | 76 | 147 | 5.0 | 9.0 | 0.00 | 0.00 | 0.00 | 44 | 1020.4 |
| 20260902143534 | 76 | 161 | 3.0 | 9.0 | 0.00 | 0.00 | 0.00 | 45 | 1020.4 |
| 20260902143032 | 76 | 154 | 4.0 | 7.0 | 0.00 | 0.00 | 0.00 | 46 | 1020.4 |
| 20260902142532 | 76 | 161 | 1.0 | 7.0 | 0.00 | 0.00 | 0.00 | 46 | 1020.3 |
| 20260902142030 | 75 | 184 | 1.0 | 8.0 | 0.00 | 0.00 | 0.00 | 47 | 1020.3 |
| 20260902141529 | 75 | 166 | 5.0 | 8.0 | 0.00 | 0.00 | 0.00 | 46 | 1020.3 |
| 20260902141026 | 75 | 151 | 2.0 | 6.0 | 0.00 | 0.00 | 0.00 | 47 | 1020.1 |
| 20260902140526 | 75 | 188 | 2.0 | 6.0 | 0.00 | 0.00 | 0.00 | 48 | 1020.2 |
| 20260902140032 | 74 | 177 | 2.0 | 6.0 | 0.00 | 0.00 | 0.00 | 48 | 1020.1 |
| 20260902135524 | 74 | 209 | 1.0 | 4.0 | 0.00 | 0.00 | 0.00 | 48 | 1020.1 |
| 20260902135023 | 74 | 209 | 1.0 | 4.0 | 0.00 | 0.00 | 0.00 | 49 | 1020.0 |
| 20260902134523 | 73 | 209 | 1.0 | 5.0 | 0.00 | 0.00 | 0.00 | 50 | 1020.0 |
| 20260902134021 | 73 | 209 | 2.0 | 5.0 | 0.00 | 0.00 | 0.00 | 50 | 1019.9 |
| 20260902133521 | 72 | 209 | 0.0 | 2.0 | 0.00 | 0.00 | 0.00 | 51 | 1019.9 |
| 20260902133020 | 71 | 209 | 0.0 | 2.0 | 0.00 | 0.00 | 0.00 | 52 | 1019.8 |
| 20260902132526 | 71 | 209 | 0.0 | 1.0 | 0.00 | 0.00 | 0.00 | 52 | 1019.8 |
| 20260902132019 | 71 | 209 | 0.0 | 1.0 | 0.00 | 0.00 | 0.00 | 51 | 1019.8 |
| 20260902131528 | 70 | 209 | 0.0 | 2.0 | 0.00 | 0.00 | 0.00 | 53 | 1019.7 |
| 20260902131017 | 70 | 209 | 0.0 | 2.0 | 0.00 | 0.00 | 0.00 | 52 | 1019.7 |
| 20260902130516 | 70 | 209 | 1.0 | 2.0 | 0.00 | 0.00 | 0.00 | 51 | 1019.6 |
| 20260902130015 | 70 | 209 | 0.0 | 1.0 | 0.00 | 0.00 | 0.00 | 52 | 1019.5 |
| 20260902125517 | 70 | 209 | 0.0 | 0.0 | 0.00 | 0.00 | 0.00 | 51 | 1019.5 |
| 20260902125015 | 70 | 209 | 0.0 | 2.0 | 0.00 | 0.00 | 0.00 | 51 | 1019.5 |
| 20260902124525 | 70 | 209 | 0.0 | 2.0 | 0.00 | 0.00 | 0.00 | 49 | 1019.4 |
| 20260902124013 | 71 | 209 | 0.0 | 1.0 | 0.00 | 0.00 | 0.00 | 50 | 1019.4 |
| 20260902123511 | 70 | 209 | 0.0 | 2.0 | 0.00 | 0.00 | 0.00 | 50 | 1019.3 |
| 20260902123010 | 70 | 209 | 0.0 | 2.0 | 0.00 | 0.00 | 0.00 | 51 | 1019.3 |
| 20260902122512 | 71 | 209 | 0.0 | 0.0 | 0.00 | 0.00 | 0.00 | 51 | 1019.3 |
| 20260902122008 | 71 | 209 | 0.0 | 0.0 | 0.00 | 0.00 | 0.00 | 50 | 1019.2 |
| 20260902121508 | 71 | 209 | 0.0 | 5.0 | 0.00 | 0.00 | 0.00 | 49 | 1019.2 |
| 20260902121008 | 72 | 209 | 0.0 | 5.0 | 0.00 | 0.00 | 0.00 | 48 | 1019.3 |
| 20260902120507 | 71 | 209 | 0.0 | 4.0 | 0.00 | 0.00 | 0.00 | 49 | 1019.2 |
| 20260902120007 | 71 | 209 | 0.0 | 2.0 | 0.00 | 0.00 | 0.00 | 49 | 1019.2 |
| 20260902115506 | 71 | 209 | 0.0 | 2.0 | 0.00 | 0.00 | 0.00 | 50 | 1019.2 |
| 20260902115006 | 71 | 209 | 0.0 | 1.0 | 0.00 | 0.00 | 0.00 | 50 | 1019.2 |
| 20260902114515 | 71 | 209 | 0.0 | 2.0 | 0.00 | 0.00 | 0.00 | 50 | 1019.1 |
| 20260902114005 | 71 | 209 | 0.0 | 2.0 | 0.00 | 0.00 | 0.00 | 50 | 1019.1 |
| 20260902113504 | 71 | 209 | 0.0 | 2.0 | 0.00 | 0.00 | 0.00 | 50 | 1019.0 |
| 20260902113002 | 72 | 209 | 0.0 | 1.0 | 0.00 | 0.00 | 0.00 | 50 | 1019.0 |
| 20260902112502 | 71 | 209 | 0.0 | 1.0 | 0.00 | 0.00 | 0.00 | 50 | 1019.0 |
| 20260902112004 | 71 | 209 | 0.0 | 2.0 | 0.00 | 0.00 | 0.00 | 51 | 1018.9 |
| 20260902111502 | 71 | 209 | 0.0 | 2.0 | 0.00 | 0.00 | 0.00 | 50 | 1019.0 |
| 20260902111001 | 72 | 209 | 0.0 | 1.0 | 0.00 | 0.00 | 0.00 | 50 | 1019.0 |
| 20260902110500 | 72 | 209 | 0.0 | 1.0 | 0.00 | 0.00 | 0.00 | 50 | 1019.0 |
| 20260902110001 | 72 | 209 | 0.0 | 2.0 | 0.00 | 0.00 | 0.00 | 50 | 1019.0 |
| 20260902105604 | 72 | 209 | 0.0 | 2.0 | 0.00 | 0.00 | 0.00 | 51 | 1018.9 |
| 20260902105100 | 72 | 209 | 0.0 | 1.0 | 0.00 | 0.00 | 0.00 | 50 | 1019.0 |
| 20260902104603 | 72 | 209 | 0.0 | 1.0 | 0.00 | 0.00 | 0.00 | 50 | 1019.0 |
| 20260902104059 | 72 | 209 | 0.0 | 1.0 | 0.00 | 0.00 | 0.00 | 50 | 1019.0 |
| 20260902103604 | 72 | 209 | 0.0 | 1.0 | 0.00 | 0.00 | 0.00 | 49 | 1019.1 |
| 20260902103118 | 73 | 209 | 0.0 | 1.0 | 0.00 | 0.00 | 0.00 | 49 | 1019.1 |
| 20260902102558 | 73 | 209 | 0.0 | 2.0 | 0.00 | 0.00 | 0.00 | 48 | 1019.1 |
| 20260902102058 | 72 | 209 | 0.0 | 2.0 | 0.00 | 0.00 | 0.00 | 48 | 1019.1 |
| 20260902101557 | 72 | 209 | 0.0 | 1.0 | 0.00 | 0.00 | 0.00 | 48 | 1019.0 |
| 20260902101057 | 73 | 209 | 0.0 | 0.0 | 0.00 | 0.00 | 0.00 | 48 | 1019.0 |
| 20260902100557 | 72 | 209 | 0.0 | 0.0 | 0.00 | 0.00 | 0.00 | 48 | 1018.9 |
| 20260902100057 | 73 | 209 | 0.0 | 0.0 | 0.00 | 0.00 | 0.00 | 47 | 1018.9 |
| 20260902095559 | 73 | 209 | 0.0 | 0.0 | 0.00 | 0.00 | 0.00 | 47 | 1019.0 |
| 20260902095056 | 73 | 209 | 0.0 | 2.0 | 0.00 | 0.00 | 0.00 | 48 | 1019.0 |
| 20260902094600 | 73 | 209 | 0.0 | 2.0 | 0.00 | 0.00 | 0.00 | 49 | 1018.9 |
| 20260902094056 | 72 | 209 | 0.0 | 1.0 | 0.00 | 0.00 | 0.00 | 49 | 1019.0 |
| 20260902093555 | 73 | 209 | 0.0 | 0.0 | 0.00 | 0.00 | 0.00 | 48 | 1018.9 |
| 20260902093103 | 73 | 209 | 0.0 | 0.0 | 0.00 | 0.00 | 0.00 | 48 | 1018.9 |
| 20260902092554 | 73 | 209 | 0.0 | 0.0 | 0.00 | 0.00 | 0.00 | 47 | 1018.9 |
| 20260902092057 | 73 | 209 | 0.0 | 0.0 | 0.00 | 0.00 | 0.00 | 47 | 1018.8 |
| 20260902091556 | 73 | 209 | 0.0 | 0.0 | 0.00 | 0.00 | 0.00 | 47 | 1018.9 |
| 20260902091055 | 73 | 209 | 0.0 | 0.0 | 0.00 | 0.00 | 0.00 | 46 | 1018.8 |
| 20260902090556 | 74 | 209 | 0.0 | 1.0 | 0.00 | 0.00 | 0.00 | 46 | 1018.8 |
| 20260902090059 | 74 | 209 | 0.0 | 1.0 | 0.00 | 0.00 | 0.00 | 46 | 1018.8 |
| 20260902085554 | 74 | 209 | 0.0 | 0.0 | 0.00 | 0.00 | 0.00 | 46 | 1018.9 |
| 20260902085050 | 74 | 209 | 0.0 | 1.0 | 0.00 | 0.00 | 0.00 | 45 | 1019.0 |
| 20260902084550 | 74 | 209 | 0.0 | 1.0 | 0.00 | 0.00 | 0.00 | 45 | 1019.0 |
| 20260902084051 | 74 | 209 | 0.0 | 0.0 | 0.00 | 0.00 | 0.00 | 45 | 1018.9 |
| 20260902083549 | 74 | 209 | 0.0 | 0.0 | 0.00 | 0.00 | 0.00 | 44 | 1019.0 |
| 20260902083047 | 75 | 209 | 0.0 | 0.0 | 0.00 | 0.00 | 0.00 | 45 | 1019.0 |
| 20260902082547 | 75 | 209 | 0.0 | 1.0 | 0.00 | 0.00 | 0.00 | 44 | 1019.0 |
| 20260902082047 | 76 | 209 | 0.0 | 1.0 | 0.00 | 0.00 | 0.00 | 43 | 1019.0 |
| 20260902081546 | 76 | 209 | 0.0 | 2.0 | 0.00 | 0.00 | 0.00 | 42 | 1019.1 |
| 20260902081045 | 76 | 209 | 0.0 | 2.0 | 0.00 | 0.00 | 0.00 | 44 | 1019.1 |
| 20260902080545 | 76 | 209 | 0.0 | 2.0 | 0.00 | 0.00 | 0.00 | 45 | 1019.1 |
| 20260902080045 | 76 | 209 | 0.0 | 1.0 | 0.00 | 0.00 | 0.00 | 46 | 1019.1 |
| 20260902075545 | 76 | 209 | 0.0 | 2.0 | 0.00 | 0.00 | 0.00 | 46 | 1019.1 |
| 20260902075044 | 76 | 229 | 0.0 | 2.0 | 0.00 | 0.00 | 0.00 | 46 | 1019.1 |
| 20260902074555 | 76 | 102 | 0.0 | 1.0 | 0.00 | 0.00 | 0.00 | 43 | 1019.0 |
| 20260902074042 | 76 | 102 | 0.0 | 1.0 | 0.00 | 0.00 | 0.00 | 45 | 1019.2 |
| 20260902073541 | 76 | 102 | 0.0 | 1.0 | 0.00 | 0.00 | 0.00 | 44 | 1019.2 |
| 20260902073042 | 76 | 102 | 0.0 | 1.0 | 0.00 | 0.00 | 0.00 | 43 | 1019.2 |
| 20260902072543 | 77 | 102 | 0.0 | 1.0 | 0.00 | 0.00 | 0.00 | 43 | 1019.2 |
| 20260902072040 | 77 | 102 | 0.0 | 1.0 | 0.00 | 0.00 | 0.00 | 42 | 1019.3 |
| 20260902071540 | 77 | 102 | 0.0 | 1.0 | 0.00 | 0.00 | 0.00 | 42 | 1019.2 |
| 20260902071040 | 77 | 102 | 0.0 | 1.0 | 0.00 | 0.00 | 0.00 | 42 | 1019.3 |
| 20260902070539 | 77 | 102 | 0.0 | 4.0 | 0.00 | 0.00 | 0.00 | 42 | 1019.2 |
| 20260902070039 | 77 | 102 | 0.0 | 4.0 | 0.00 | 0.00 | 0.00 | 42 | 1019.1 |
| 20260902065538 | 77 | 259 | 0.0 | 1.0 | 0.00 | 0.00 | 0.00 | 43 | 1019.1 |
| 20260902065042 | 77 | 259 | 0.0 | 1.0 | 0.00 | 0.00 | 0.00 | 44 | 1019.1 |
| 20260902064540 | 77 | 259 | 0.0 | 1.0 | 0.00 | 0.00 | 0.00 | 44 | 1019.1 |
| 20260902064038 | 77 | 259 | 0.0 | 1.0 | 0.00 | 0.00 | 0.00 | 44 | 1019.0 |
| 20260902063536 | 77 | 259 | 0.0 | 0.0 | 0.00 | 0.00 | 0.00 | 44 | 1019.0 |
| 20260902063036 | 78 | 259 | 0.0 | 1.0 | 0.00 | 0.00 | 0.00 | 43 | 1019.0 |
| 20260902062534 | 79 | 259 | 0.0 | 2.0 | 0.00 | 0.00 | 0.00 | 41 | 1019.0 |
| 20260902062033 | 79 | 259 | 0.0 | 2.0 | 0.00 | 0.00 | 0.00 | 41 | 1019.1 |
| 20260902061541 | 78 | 259 | 0.0 | 1.0 | 0.00 | 0.00 | 0.00 | 43 | 1019.1 |
| 20260902061033 | 78 | 259 | 0.0 | 0.0 | 0.00 | 0.00 | 0.00 | 42 | 1019.1 |
| 20260902060530 | 79 | 259 | 0.0 | 2.0 | 0.00 | 0.00 | 0.00 | 41 | 1019.1 |
| 20260902060045 | 79 | 259 | 0.0 | 2.0 | 0.00 | 0.00 | 0.00 | 40 | 1019.2 |
| 20260902055530 | 79 | 259 | 0.0 | 2.0 | 0.00 | 0.00 | 0.00 | 40 | 1019.2 |
| 20260902055029 | 80 | 259 | 0.0 | 2.0 | 0.00 | 0.00 | 0.00 | 39 | 1019.2 |
| 20260902054538 | 80 | 259 | 0.0 | 2.0 | 0.00 | 0.00 | 0.00 | 39 | 1019.1 |
| 20260902054034 | 79 | 259 | 0.0 | 2.0 | 0.00 | 0.00 | 0.00 | 39 | 1019.1 |
| 20260902053528 | 79 | 247 | 0.0 | 1.0 | 0.00 | 0.00 | 0.00 | 41 | 1019.2 |
| 20260902053028 | 79 | 247 | 0.0 | 0.0 | 0.00 | 0.00 | 0.00 | 41 | 1019.1 |
| 20260902052527 | 80 | 247 | 0.0 | 0.0 | 0.00 | 0.00 | 0.00 | 40 | 1019.1 |
| 20260902052033 | 80 | 247 | 0.0 | 0.0 | 0.00 | 0.00 | 0.00 | 39 | 1019.2 |
| 20260902051527 | 80 | 247 | 0.0 | 1.0 | 0.00 | 0.00 | 0.00 | 41 | 1019.1 |
| 20260902051033 | 81 | 247 | 0.0 | 1.0 | 0.00 | 0.00 | 0.00 | 40 | 1019.2 |
| 20260902050528 | 81 | 247 | 0.0 | 1.0 | 0.00 | 0.00 | 0.00 | 41 | 1019.1 |
| 20260902050028 | 81 | 247 | 0.0 | 1.0 | 0.00 | 0.00 | 0.00 | 41 | 1019.2 |
| 20260902045527 | 81 | 247 | 0.0 | 4.0 | 0.00 | 0.00 | 0.00 | 41 | 1019.2 |
| 20260902045030 | 81 | 247 | 1.0 | 4.0 | 0.00 | 0.00 | 0.00 | 41 | 1019.2 |
| 20260902044527 | 80 | 247 | 0.0 | 4.0 | 0.00 | 0.00 | 0.00 | 42 | 1019.2 |
| 20260902044027 | 80 | 247 | 0.0 | 1.0 | 0.00 | 0.00 | 0.00 | 38 | 1019.1 |
| 20260902043527 | 80 | 247 | 0.0 | 1.0 | 0.00 | 0.00 | 0.00 | 40 | 1019.0 |
| 20260902043026 | 80 | 247 | 0.0 | 0.0 | 0.00 | 0.00 | 0.00 | 40 | 1019.0 |
| 20260902042526 | 80 | 247 | 0.0 | 0.0 | 0.00 | 0.00 | 0.00 | 39 | 1018.9 |
| 20260902042027 | 80 | 247 | 0.0 | 0.0 | 0.00 | 0.00 | 0.00 | 39 | 1018.9 |
| 20260902041533 | 80 | 247 | 0.0 | 0.0 | 0.00 | 0.00 | 0.00 | 38 | 1018.9 |
| 20260902041025 | 80 | 247 | 0.0 | 0.0 | 0.00 | 0.00 | 0.00 | 39 | 1018.9 |
| 20260902040526 | 80 | 247 | 0.0 | 0.0 | 0.00 | 0.00 | 0.00 | 38 | 1018.8 |
| 20260902040026 | 81 | 247 | 0.0 | 0.0 | 0.00 | 0.00 | 0.00 | 38 | 1018.9 |
| 20260902035525 | 81 | 247 | 0.0 | 0.0 | 0.00 | 0.00 | 0.00 | 37 | 1018.8 |
| 20260902035027 | 81 | 247 | 0.0 | 1.0 | 0.00 | 0.00 | 0.00 | 37 | 1018.9 |
| 20260902034527 | 82 | 247 | 0.0 | 1.0 | 0.00 | 0.00 | 0.00 | 36 | 1018.8 |
| 20260902034027 | 82 | 247 | 0.0 | 2.0 | 0.00 | 0.00 | 0.00 | 37 | 1018.7 |
| 20260902033525 | 82 | 247 | 0.0 | 2.0 | 0.00 | 0.00 | 0.00 | 38 | 1018.7 |
| 20260902033025 | 82 | 247 | 0.0 | 2.0 | 0.00 | 0.00 | 0.00 | 39 | 1018.6 |
| 20260902032524 | 82 | 247 | 0.0 | 0.0 | 0.00 | 0.00 | 0.00 | 39 | 1018.6 |
| 20260902032023 | 82 | 247 | 0.0 | 1.0 | 0.00 | 0.00 | 0.00 | 39 | 1018.4 |
| 20260902031522 | 83 | 247 | 0.0 | 2.0 | 0.00 | 0.00 | 0.00 | 39 | 1018.4 |
| 20260902031021 | 83 | 247 | 0.0 | 2.0 | 0.00 | 0.00 | 0.00 | 39 | 1018.3 |
| 20260902030520 | 83 | 247 | 0.0 | 1.0 | 0.00 | 0.00 | 0.00 | 40 | 1018.2 |
| 20260902030020 | 83 | 247 | 0.0 | 0.0 | 0.00 | 0.00 | 0.00 | 39 | 1018.2 |
| 20260902025520 | 83 | 247 | 0.0 | 0.0 | 0.00 | 0.00 | 0.00 | 38 | 1018.1 |
| 20260902025020 | 84 | 247 | 0.0 | 0.0 | 0.00 | 0.00 | 0.00 | 37 | 1018.0 |
| 20260902024521 | 83 | 247 | 0.0 | 0.0 | 0.00 | 0.00 | 0.00 | 37 | 1017.9 |
| 20260902024021 | 84 | 247 | 0.0 | 0.0 | 0.00 | 0.00 | 0.00 | 37 | 1017.8 |
| 20260902023519 | 84 | 247 | 0.0 | 0.0 | 0.00 | 0.00 | 0.00 | 36 | 1017.7 |
| 20260902023019 | 85 | 247 | 0.0 | 0.0 | 0.00 | 0.00 | 0.00 | 35 | 1017.7 |
| 20260902022520 | 85 | 247 | 0.0 | 0.0 | 0.00 | 0.00 | 0.00 | 34 | 1017.6 |
| 20260902022020 | 85 | 247 | 0.0 | 0.0 | 0.00 | 0.00 | 0.00 | 34 | 1017.6 |
| 20260902021519 | 85 | 247 | 0.0 | 0.0 | 0.00 | 0.00 | 0.00 | 34 | 1017.5 |
| 20260902021019 | 85 | 247 | 0.0 | 0.0 | 0.00 | 0.00 | 0.00 | 34 | 1017.4 |
| 20260902020520 | 86 | 247 | 0.0 | 0.0 | 0.00 | 0.00 | 0.00 | 33 | 1017.4 |
| 20260902020019 | 86 | 247 | 0.0 | 1.0 | 0.00 | 0.00 | 0.00 | 32 | 1017.3 |
| 20260902015519 | 86 | 247 | 0.0 | 1.0 | 0.00 | 0.00 | 0.00 | 32 | 1017.3 |
| 20260902015019 | 86 | 247 | 0.0 | 1.0 | 0.00 | 0.00 | 0.00 | 31 | 1017.3 |
| 20260902014523 | 86 | 247 | 0.0 | 0.0 | 0.00 | 0.00 | 0.00 | 31 | 1017.3 |
| 20260902014017 | 87 | 247 | 0.0 | 1.0 | 0.00 | 0.00 | 0.00 | 31 | 1017.2 |
| 20260902013518 | 87 | 247 | 0.0 | 5.0 | 0.00 | 0.00 | 0.00 | 30 | 1017.2 |
| 20260902013018 | 87 | 247 | 1.0 | 5.0 | 0.00 | 0.00 | 0.00 | 30 | 1017.1 |
| 20260902012518 | 87 | 251 | 1.0 | 4.0 | 0.00 | 0.00 | 0.00 | 29 | 1017.1 |
| 20260902012017 | 87 | 238 | 0.0 | 5.0 | 0.00 | 0.00 | 0.00 | 29 | 1017.1 |
| 20260902011518 | 87 | 198 | 2.0 | 5.0 | 0.00 | 0.00 | 0.00 | 29 | 1017.1 |
| 20260902011018 | 88 | 240 | 0.0 | 4.0 | 0.00 | 0.00 | 0.00 | 30 | 1017.1 |
| 20260902010517 | 88 | 264 | 1.0 | 3.0 | 0.00 | 0.00 | 0.00 | 29 | 1017.1 |
| 20260902010029 | 88 | 222 | 0.0 | 4.0 | 0.00 | 0.00 | 0.00 | 28 | 1017.1 |
| 20260902005619 | 88 | 219 | 0.0 | 6.0 | 0.00 | 0.00 | 0.00 | 28 | 1017.1 |
| 20260902005017 | 88 | 261 | 3.0 | 7.0 | 0.00 | 0.00 | 0.00 | 28 | 1017.1 |
| 20260902004517 | 89 | 264 | 4.0 | 8.0 | 0.00 | 0.00 | 0.00 | 28 | 1017.1 |
| 20260902004015 | 89 | 301 | 3.0 | 6.0 | 0.00 | 0.00 | 0.00 | 29 | 1017.1 |
| 20260902003519 | 89 | 165 | 0.0 | 8.0 | 0.00 | 0.00 | 0.00 | 29 | 1017.1 |
| 20260902003017 | 89 | 226 | 1.0 | 8.0 | 0.00 | 0.00 | 0.00 | 28 | 1017.1 |
| 20260902002515 | 89 | 246 | 3.0 | 8.0 | 0.00 | 0.00 | 0.00 | 28 | 1017.1 |
| 20260902002014 | 90 | 201 | 1.0 | 8.0 | 0.00 | 0.00 | 0.00 | 28 | 1017.2 |
| 20260902001517 | 90 | 237 | 1.0 | 9.0 | 0.00 | 0.00 | 0.00 | 28 | 1017.3 |
| 20260902001013 | 90 | 204 | 5.0 | 9.0 | 0.00 | 0.00 | 0.00 | 27 | 1017.4 |
| 20260902000513 | 90 | 211 | 4.0 | 9.0 | 0.00 | 0.00 | 0.00 | 27 | 1017.4 |
| 20260902000020 | 90 | 294 | 5.0 | 9.0 | 0.00 | 0.00 | 0.00 | 27 | 1017.3 |
| 20260901235513 | 90 | 210 | 1.0 | 8.0 | 0.00 | 0.00 | 0.00 | 28 | 1017.4 |
| 20260901235012 | 90 | 254 | 5.0 | 9.0 | 0.00 | 0.00 | 0.00 | 28 | 1017.4 |
| 20260901234512 | 90 | 190 | 5.0 | 11.0 | 0.00 | 0.00 | 0.00 | 28 | 1017.4 |
| 20260901234011 | 90 | 229 | 6.0 | 11.0 | 0.00 | 0.00 | 0.00 | 28 | 1017.4 |
| 20260901233512 | 90 | 257 | 4.0 | 11.0 | 0.00 | 0.00 | 0.00 | 28 | 1017.4 |
| 20260901233011 | 91 | 236 | 4.0 | 10.0 | 0.00 | 0.00 | 0.00 | 30 | 1017.4 |
| 20260901232511 | 91 | 261 | 4.0 | 10.0 | 0.00 | 0.00 | 0.00 | 29 | 1017.4 |
| 20260901232011 | 91 | 205 | 4.0 | 10.0 | 0.00 | 0.00 | 0.00 | 29 | 1017.4 |
| 20260901231513 | 91 | 243 | 6.0 | 9.0 | 0.00 | 0.00 | 0.00 | 29 | 1017.5 |
| 20260901231011 | 91 | 244 | 3.0 | 9.0 | 0.00 | 0.00 | 0.00 | 29 | 1017.4 |
| 20260901230511 | 91 | 265 | 6.0 | 9.0 | 0.00 | 0.00 | 0.00 | 29 | 1017.5 |
| 20260901230013 | 91 | 246 | 5.0 | 10.0 | 0.00 | 0.00 | 0.00 | 29 | 1017.4 |
| 20260901225511 | 92 | 258 | 5.0 | 10.0 | 0.00 | 0.00 | 0.00 | 29 | 1017.4 |
| 20260901225010 | 91 | 243 | 6.0 | 11.0 | 0.00 | 0.00 | 0.00 | 30 | 1017.5 |
| 20260901224509 | 91 | 215 | 5.0 | 11.0 | 0.00 | 0.00 | 0.00 | 30 | 1017.5 |
| 20260901224008 | 92 | 261 | 8.0 | 11.0 | 0.00 | 0.00 | 0.00 | 29 | 1017.5 |
| 20260901223509 | 91 | 238 | 6.0 | 11.0 | 0.00 | 0.00 | 0.00 | 30 | 1017.5 |
| 20260901223009 | 90 | 236 | 6.0 | 11.0 | 0.00 | 0.00 | 0.00 | 30 | 1017.6 |
| 20260901222508 | 91 | 267 | 6.0 | 11.0 | 0.00 | 0.00 | 0.00 | 29 | 1017.6 |
| 20260901222008 | 92 | 296 | 4.0 | 7.0 | 0.00 | 0.00 | 0.00 | 28 | 1017.6 |
| 20260901221507 | 91 | 260 | 3.0 | 9.0 | 0.00 | 0.00 | 0.00 | 30 | 1017.6 |
| 20260901221007 | 90 | 245 | 5.0 | 11.0 | 0.00 | 0.00 | 0.00 | 29 | 1017.6 |
| 20260901220506 | 90 | 227 | 7.0 | 11.0 | 0.00 | 0.00 | 0.00 | 29 | 1017.7 |
| 20260901220009 | 90 | 269 | 2.0 | 11.0 | 0.00 | 0.00 | 0.00 | 29 | 1017.7 |
| 20260901215506 | 90 | 244 | 6.0 | 11.0 | 0.00 | 0.00 | 0.00 | 29 | 1017.7 |
| 20260901215006 | 90 | 276 | 5.0 | 10.0 | 0.00 | 0.00 | 0.00 | 29 | 1017.8 |
| 20260901214506 | 90 | 236 | 3.0 | 9.0 | 0.00 | 0.00 | 0.00 | 29 | 1017.9 |
| 20260901214004 | 90 | 317 | 5.0 | 10.0 | 0.00 | 0.00 | 0.00 | 29 | 1018.0 |
| 20260901213504 | 91 | 276 | 5.0 | 10.0 | 0.00 | 0.00 | 0.00 | 29 | 1018.0 |
| 20260901213004 | 91 | 211 | 5.0 | 8.0 | 0.00 | 0.00 | 0.00 | 29 | 1018.1 |
| 20260901212503 | 91 | 157 | 2.0 | 10.0 | 0.00 | 0.00 | 0.00 | 28 | 1018.1 |
| 20260901212004 | 92 | 198 | 4.0 | 10.0 | 0.00 | 0.00 | 0.00 | 28 | 1018.2 |
| 20260901211502 | 91 | 164 | 6.0 | 11.0 | 0.00 | 0.00 | 0.00 | 28 | 1018.2 |
| 20260901211002 | 91 | 246 | 3.0 | 11.0 | 0.00 | 0.00 | 0.00 | 29 | 1018.3 |
| 20260901210502 | 90 | 220 | 6.0 | 10.0 | 0.00 | 0.00 | 0.00 | 29 | 1018.4 |
| 20260901210100 | 90 | 206 | 3.0 | 9.0 | 0.00 | 0.00 | 0.00 | 29 | 1018.4 |
| 20260901205600 | 90 | 240 | 6.0 | 11.0 | 0.00 | 0.00 | 0.00 | 29 | 1018.4 |
| 20260901205103 | 91 | 207 | 6.0 | 11.0 | 0.00 | 0.00 | 0.00 | 29 | 1018.5 |
| 20260901204558 | 92 | 214 | 7.0 | 11.0 | 0.00 | 0.00 | 0.00 | 28 | 1018.5 |
| 20260901204101 | 91 | 165 | 4.0 | 10.0 | 0.00 | 0.00 | 0.00 | 28 | 1018.6 |
| 20260901203559 | 92 | 309 | 3.0 | 10.0 | 0.00 | 0.00 | 0.00 | 28 | 1018.7 |
| 20260901203057 | 93 | 214 | 4.0 | 12.0 | 0.00 | 0.00 | 0.00 | 28 | 1018.8 |
| 20260901202556 | 93 | 138 | 6.0 | 12.0 | 0.00 | 0.00 | 0.00 | 28 | 1018.8 |
| 20260901202055 | 92 | 171 | 3.0 | 10.0 | 0.00 | 0.00 | 0.00 | 27 | 1018.9 |
| 20260901201558 | 92 | 154 | 5.0 | 10.0 | 0.00 | 0.00 | 0.00 | 28 | 1019.0 |
| 20260901201053 | 91 | 162 | 2.0 | 8.0 | 0.00 | 0.00 | 0.00 | 28 | 1019.0 |
| 20260901200551 | 92 | 160 | 0.0 | 9.0 | 0.00 | 0.00 | 0.00 | 28 | 1019.1 |
| 20260901200052 | 91 | 140 | 4.0 | 9.0 | 0.00 | 0.00 | 0.00 | 28 | 1019.1 |
| 20260901195550 | 91 | 123 | 4.0 | 9.0 | 0.00 | 0.00 | 0.00 | 30 | 1019.2 |
| 20260901195050 | 91 | 203 | 3.0 | 9.0 | 0.00 | 0.00 | 0.00 | 28 | 1019.2 |
| 20260901194600 | 90 | 292 | 5.0 | 9.0 | 0.00 | 0.00 | 0.00 | 29 | 1019.2 |
| 20260901194051 | 91 | 276 | 5.0 | 9.0 | 0.00 | 0.00 | 0.00 | 29 | 1019.3 |